Regional Weather Roundup
Issued by NWS Upton, NY

Home | Current Version | Previous Version | Text Only | Print | Product List | Glossary On
Versions: 1 2 3 4 5 6 7 8 9 10 11 12 13 14 15 16 17 18 19 20 21 22 23 24 25 26 27 28 29 30 31 32 33 34 35 36 37 38 39 40 41 42 43 44 45 46 47 48 49 50
000
ASUS41 KOKX 020104
RWROKX

REGIONAL WEATHER ROUNDUP
NATIONAL WEATHER SERVICE NEW YORK NY
900 PM EDT SAT AUG 01 2015

NOTE: "FAIR" INDICATES FEW OR NO CLOUDS BELOW 12,000 FEET WITH NO
SIGNIFICANT WEATHER AND/OR OBSTRUCTIONS TO VISIBILITY.

NYZ071-072-176-178-NJZ106-104-020200-
NEW YORK CITY METRO AREA


CITY           SKY/WX    TMP DP  RH WIND       PRES   REMARKS
CENTRAL PARK   CLEAR     81  56  42 VRB3      29.85R
LAGUARDIA APRT PTCLDY    82  57  42 NW7       29.81R
KENNEDY INTL   PTCLDY    84  54  35 NW10      29.82R
NEWARK/LIBERTY PTCLDY    83  57  41 W8        29.82R
BRNX BOT. GARD   N/A     81  55  41 CALM      29.82S
TETERBORO      CLEAR     81  55  40 W8        29.81R
$$

NYZ177-179-078>081-020200-
LONG ISLAND NEW YORK

CITY           SKY/WX    TMP DP  RH WIND       PRES   REMARKS
FARMINGDALE    CLEAR     81  57  43 NW6       29.82R
ISLIP          PTCLDY    78  59  51 NW3       29.80R
SHIRLEY        PTCLDY    78  59  51 W3        29.82R
WESTHAMPTON    PTCLDY    72  65  78 CALM      29.83R
MONTAUK POINT    N/A     76  68  76 VRB3      29.82R
$$

NYZ052-065-067-020200-
HUDSON VALLEY

CITY           SKY/WX    TMP DP  RH WIND       PRES   REMARKS
WHITE PLAINS   PTCLDY    76  59  55 NW6       29.83R
NEWBURGH       CLEAR     73  57  56 W8        29.84R
MONTGOMERY     CLEAR     68  60  75 W5        29.84R
POUGHKEEPSIE   CLEAR     78  54  43 W3        29.81R
ALBANY         PTCLDY    73  54  51 NW6       29.83R
$$

NJZ001-105-106-008-010-013-015-019>022-104-020200-
NEW JERSEY

CITY           SKY/WX    TMP DP  RH WIND       PRES   REMARKS
NEWARK/LIBERTY PTCLDY    83  57  41 W8        29.82R
TETERBORO      CLEAR     81  55  40 W8        29.81R
CALDWELL       CLEAR     77  57  50 NW5       29.83R
MORRISTOWN     CLEAR     75  61  60 CALM      29.84R
SOMERVILLE     CLEAR     70  60  70 CALM      29.82R
SUSSEX         PTCLDY    74  57  55 VRB3      29.85R
ANDOVER          N/A     65  64  97 CALM      29.87R
TRENTON        CLEAR     80  57  45 NW3       29.84R
MILLVILLE      CLEAR     74  66  76 CALM      29.86R
ATLANTIC CITY  CLEAR     79  63  57 SW3       29.85R
WRIGHTSTOWN    CLEAR     76  61  57 SW2       29.82R
TOMS RIVER       N/A     75  64  69 CALM      29.85R
BELMAR         CLEAR     77  55  47 W5        29.84R
$$

PAZ047>061-062-071-020200-
EASTERN PENNSYLVANIA

CITY           SKY/WX    TMP DP  RH WIND       PRES   REMARKS
PHILADELPHIA   PTCLDY    83  58  42 W7        29.85R
ALLENTOWN      MOCLDY    77  59  53 W3        29.86R
SCRANTON       CLEAR     65  61  87 SE3       29.88R
$$

CTZ002-004>006-009-010-012-RIZ004-006-007-MAZ004-011-015-020200-
SOUTHERN NEW ENGLAND
 IN CT

CITY           SKY/WX    TMP DP  RH WIND       PRES   REMARKS
BRADLEY INTL   PTCLDY    74  64  71 NW6       29.79R
HARTFORD       CLEAR     74  65  73 SE6       29.79R
DANBURY        CLEAR     69  61  75 W5        29.84R
WTRBRY/OXFORD  PTCLDY    73  57  56 CALM      29.85R
BRIDGEPORT     CLEAR     80  61  52 SW3       29.80R
MERIDEN        CLEAR     73  67  81 W3        29.80R
NEW HAVEN      PTCLDY    78  61  55 CALM      29.81R
CHESTER        FAIR      72  64  78 W3        29.82R
GROTON         CLEAR     74  65  73 S5        29.80R
WILLIMANTIC    CLEAR     73  64  73 CALM      29.80R

 IN RI

CITY           SKY/WX    TMP DP  RH WIND       PRES   REMARKS
PROVIDENCE     MOCLDY    76  62  62 W5        29.80R
BLOCK ISLAND     N/A     73  70  88 W12       29.82R
WESTERLY       CLEAR     74  64  71 CALM      29.81R

 IN MA

CITY           SKY/WX    TMP DP  RH WIND       PRES   REMARKS
BOSTON         PTCLDY    79  57  46 W10       29.78R
WORCESTER      CLEAR     69  62  78 W6        29.83R
WESTFIELD      CLEAR     72  63  73 CALM      29.81R
PROVINCETOWN   PTCLDY    72  63  73 S7        29.79R
NANTUCKET      CLEAR     73  70  90 SW13      29.81R
$$

ANZ330-335-338-340-345-350-353-355-020200-
COASTAL MARINE OBSERVATIONS


STATION/POSITION TIME  SKY/WX   TEMP    WIND        PRES    VSBY  WAVE
                                AIR SEA DIR/SP/G                  HT/PER
                 (UTC)          (F)     (DEG/KT/KT) (MB)    (MI)  (FT/S)
NY HARB ENTRANCE 2350            80 77  280/  8/ 10 1008.5          4/ 9
4S FIRE IS       NOT AVBL
20S FIRE ISLAND  2350            78 76  220/ 14/ 16 1008.5          4/ 9
GREAT SOUTH BAY  0000            82 81  320/  6/  8   N/A
23SW MTP         0050            76 74  240/ 16/ 17 1008.8          4/ 9
HUDSON CANYON    NOT AVBL
KINGS POINT      0000            81 72  330/ 10/ 13 1008.4
EXECUTION ROCKS  0000            79     250/  6/  8   N/A
CENTRAL LI SOUND NOT AVBL
EASTERN LI SOUND 0000            75 68  190/  6/  6   N/A
ROBBINS REEF     0000            83     300/ 12/ 14 1008.1
$$


>>>>>>>>>>>>>>>>>>>>>>>>>>>> KEY <<<<<<<<<<<<<<<<<<<<<<<<<<<
>                                                          <
>     SKY/WX - SKY CONDITION/PRESENT WEATHER               <
>     TMP    - TEMPERATURE IN FAHRENHEIT                   <
>     DP     - DEWPOINT IN FAHRENHEIT                      <
>     RH     - RELATIVE HUMIDITY IN PERCENT                <
>     WIND   - DIRECTION AND SPEED IN MPH                  <
>     PRES   - MEAN SEA LEVEL PRESSURE IN INCHES OF HG     <
>     WCI    - WIND CHILL INDEX                            <
>     VSB    - VISIBILITY IN MILES                         <
>     HX     - HEAT INDEX                                  <
>     TC     - TEMPERATURE IN CELSIUS                      <
>     VRB    - VARIABLE WIND DIRECTION                     <
>                                                          <
>>>>>>>>>>>>>>>>>>>>>>>>>>>> KEY <<<<<<<<<<<<<<<<<<<<<<<<<<<




USA.gov is the U.S. government's official web portal to all federal, state and local government web resources and services.